Flag Weather past 2 weeks in Buenos Aires, Argentina

Now
73 °F

Clear.


Feels Like: 76 °F
Forecast: 70 / 84 °F
Wind: 7 mph from Southeast

Location: Buenos Aires Airport

Current Time: Nov 27, 2014 at 9:15:16 PM

Latest Report: Nov 27, 2014 at 8:00 PM


Visibility: 10 mi

Pressure: 29.95 "Hg

Humidity: 61%

Dew point: 59 °F

Location of Buenos AiresLocation

Historic Weather in Buenos Aires — Graph

°F

Buenos Aires temperature yesterday

Maximum temperature yesterday: 73 °F (at 6:00 PM)
Minimum temperature yesterday: 64 °F (at 4:00 AM)
Average temperature yesterday: 69 °F

Past Weeks' High & Low Weather Summary

 TemperatureHumidityPressure
High88 °F (Nov 18, 4:00 PM)94% (Nov 19, 9:00 AM)30.15 "Hg (Nov 19, 9:00 AM)
Low55 °F (Nov 13, 5:00 AM)29% (Nov 13, 4:00 AM)29.65 "Hg (Nov 18, 6:00 PM)
Average71 °F60%29.93 "Hg
* Reported Nov 12 8:00 PM — Nov 27 8:00 PM, Buenos Aires, Weather by CustomWeather, © 2014

Note: Actual official high and low records may vary slightly from our data, if they occured in-between our weather recording intervals... More about our weather records

Advertising

Buenos Aires weather history for previous 24 hours

 ConditionsComfort  
Time TempWeatherWind HumidityBarometerVisibility
8:00 PM
Nov 27
73 °FClear.7 mph61%29.95 "Hg10 mi
7:00 PM75 °FClear.6 mph54%29.95 "Hg10 mi
6:00 PM75 °FSunny.6 mph54%29.95 "Hg10 mi
5:00 PM77 °FSunny.6 mph54%29.95 "Hg10 mi
4:00 PM77 °FPassing clouds.6 mph44%29.98 "HgN/A
3:00 PM77 °FSunny.5 mph44%29.98 "Hg10 mi
2:00 PM75 °FSunny.6 mph54%30.01 "Hg10 mi
1:00 PM73 °FSunny.6 mph61%30.01 "Hg10 mi
12:00 PM73 °FSunny.8 mph57%30.04 "Hg10 mi
11:00 AM72 °FPassing clouds.5 mph69%30.04 "HgN/A
10:00 AM72 °FSunny.5 mph65%30.04 "Hg10 mi
9:00 AM72 °FPassing clouds.5 mph65%30.04 "HgN/A
8:00 AM70 °FSunny.5 mph73%30.04 "Hg10 mi
7:00 AM70 °FSunny.3 mph64%30.01 "Hg10 mi
6:00 AM64 °FSunny.3 mph78%29.98 "Hg10 mi
5:00 AM66 °FSunny.7 mph68%29.98 "Hg10 mi
4:00 AM66 °FClear.6 mph73%29.98 "Hg10 mi
3:00 AM64 °FClear.3 mph78%29.95 "Hg10 mi
2:00 AM66 °FClear.5 mph68%29.98 "Hg10 mi
1:00 AM66 °FClear.No wind73%30.01 "Hg10 mi
12:00 AM66 °FPassing clouds.3 mph73%30.04 "HgN/A
11:00 PM
Nov 26
68 °FClear.3 mph64%30.01 "Hg10 mi
10:00 PM70 °FClear.6 mph60%30.01 "Hg10 mi
9:00 PM70 °FClear.8 mph64%29.95 "Hg10 mi
Weather by CustomWeather, © 2014

See weather overviewHow to use our weather pages